Location: Ellerstadt
(49.4644°N, 8.2615°E)
Time: 00:07:02
(UTC+00:00)

FALCON 9 DEB - Pass Details

Date: 03 March 2021
Orbit: 367 x 384 km, 53.0° (Epoch: 13 April)

Event Time Altitude Azimuth Distance (km) Brightness Sun altitude
Rises 18:25:15 0° 282° (WNW) 2,284 8.8 -12.5°
Reaches altitude 10° 18:27:23 10° 290° (WNW) 1,427 7.1 -12.8°
Maximum altitude 18:30:27 42° 3° (N) 574 3.7 -13.3°
Enters shadow 18:32:02 23° 62° (ENE) 886 4.2 -13.6°
